Regional Weather Roundup
Issued by NWS

Home | Current Version | Previous Version | Graphics & Text | Print | Product List | Glossary On
Versions: 1 2 3 4 5 6 7 8 9 10 11 12 13 14 15 16 17 18 19 20 21 22 23 24 25 26 27 28 29 30 31 32 33 34 35 36 37 38 39 40 41 42 43 44 45 46 47 48 49 50
000
ASUS43 KMPX 310601
RWRMN
WEATHER ROUNDUP FOR MINNESOTA
NATIONAL WEATHER SERVICE TWIN CITIES/CHANHASSEN MN
100 AM CDT FRI JUL 31 2015


NOTE: "FAIR" INDICATES FEW OR NO CLOUDS BELOW 12,000 FEET WITH NO
SIGNIFICANT WEATHER AND/OR OBSTRUCTIONS TO VISIBILITY. N/A MEANS
CURRENT SKY AND/OR WEATHER CONDITIONS ARE NOT AVAILABLE.

MNZ060>063-068>070-310700-
   Twin Cities Metro

CITY           SKY/WX    TMP DP  RH WIND       PRES   REMARKS
TWIN CITIES    CLEAR     73  60  63 W6        30.02S
6HR MIN TEMP:  73; 6HR MAX TEMP:  83;

ST PAUL        CLEAR     71  59  65 W6        30.02S
CRYSTAL        CLEAR     72  59  63 W7        30.01S
BLAINE         CLEAR     72  61  68 W7        30.02R
LAKEVILLE      CLEAR     66  61  82 W5        30.04S
EDEN PRAIRIE   CLEAR     70  62  76 W5        30.03R
6HR MIN TEMP:  70; 6HR MAX TEMP:  82;

SOUTH ST PAUL  CLEAR     70  61  73 W6        30.01F
LAKE ELMO      FAIR      68  59  73 W3        30.02F
$$
MNZ001>005-007-008-013>017-022>024-027-028-310700-
   Northwest Minnesota

CITY           SKY/WX    TMP DP  RH WIND       PRES   REMARKS
BEMIDJI        CLEAR     64  49  58 W10       30.00S
HALLOCK        CLEAR     59  54  82 W7        29.98S
ROSEAU         CLEAR     61  54  77 W7        29.96S
WARROAD        PTCLDY    61  55  82 W9        29.95S
THIEF RVR FALL CLEAR     59  52  77 W8        30.00S
CROOKSTON      CLEAR     57  52  82 W7        30.02S
FOSSTON        CLEAR     61  48  63 W8        30.02S
DETROIT LAKES  CLEAR     64  52  63 NW9       30.06S
MOORHEAD       CLEAR     61  54  77 W7        30.06S
PARK RAPIDS    CLEAR     63  50  62 NW9       30.02S
MAHNOMEN       FAIR      59  52  77 W6        30.03S
$$
MNZ006-009>011-018-025>026-310700-
   North Central Minnesota

CITY           SKY/WX    TMP DP  RH WIND       PRES   REMARKS
BAUDETTE       CLEAR     60  54  80 W7        29.93S
FLAG ISLAND    PTCLDY    63  55  77 W12       29.91S
INTL FALLS     CLOUDY    59  56  89 W3        29.89F
6HR MIN TEMP:  55; 6HR MAX TEMP:  76; 6HR PCP: TRACE;

WASKISH        CLEAR     66  55  68 W14G20    29.95S
BIG FORK       CLEAR     55  54  94 SW3       29.95S
LONGVILLE      CLEAR     66  54  63 W6        29.99R
GRAND RAPIDS   PTCLDY    68  52  56 W10G17    29.96R
CRANE LAKE     PTCLDY    54  54 100 CALM      29.91F
ORR            CLEAR     57  54  88 CALM      29.89S
COOK           PTCLDY    59  54  82 W3        29.92S
WALKER         FAIR      64  52  64 W8        30.00S
$$
MNZ012-019>021-037-310700-
   Northeast Minnesota

CITY           SKY/WX    TMP DP  RH WIND       PRES   REMARKS
DULUTH         PTCLDY    63  54  72 W12       29.92F
6HR MIN TEMP:  62; 6HR MAX TEMP:  79;

ELY            CLOUDY    63  54  72 NW3       29.90F
HIBBING        MOCLDY    57  53  86 SW5       29.94R
EVELETH        PTCLDY    63  52  67 W3        29.93F
DULUTH HARBOR  CLEAR     70  59  68 SW10      29.91S
TWO HARBORS    MOCLDY    66  57  72 W5        29.89S
SILVER BAY     MOCLDY    66  55  68 W6        29.88R
GRAND MARAIS     N/A     56  50  80 CALM      29.83F
G MARAIS ARPRT   N/A     55  52  88 NW3       29.88F
$$
MNZ029>031-032-039>041-046>048-054>057-064-310700-
   West Central Minnesota

CITY           SKY/WX    TMP DP  RH WIND       PRES   REMARKS
FERGUS FALLS   CLEAR     61  55  82 NW6       30.06S
WHEATON        CLEAR     63  55  77 W6        30.09S
MORRIS         CLEAR     63  59  88 NW8       30.07R
ALEXANDRIA     CLEAR     66  57  72 NW7       30.09R
ELBOW LAKE     FAIR      62  56  81 NW8       30.07R
WADENA         CLEAR     64  52  63 W6        30.04S
GLENWOOD       CLEAR     64  57  77 W9        30.08R
APPLETON       CLEAR     61  57  88 W7        30.07S
BENSON         CLEAR     61  55  82 NW5       30.07R
ORTONVILLE     CLEAR     64  57  77 NW3       30.08S
MADISON        CLEAR     63  55  77 W6        30.09S
WILLMAR        FAIR      64  61  88 W5        30.08S
$$
MNZ033>034-036-042>043-049>051-058-059-310700-
   Central Minnesota

CITY           SKY/WX    TMP DP  RH WIND       PRES   REMARKS
ST CLOUD       CLEAR     64  58  80 CALM      30.02S
6HR MIN TEMP:  64; 6HR MAX TEMP:  81;

SAUK CENTRE    FAIR      62  57  84 W7        30.06R
PAYNESVILLE    CLEAR     56  55  99 SW6       30.06S
AITKIN         PTCLDY    68  55  64 W5        29.97S
PINE RIVER     CLEAR     64  55  72 W5        30.04R
BRAINERD       CLEAR     69  54  58 W10       30.01R
STAPLES        CLEAR     63  54  72 W7        30.04R
LONG PRAIRIE   FAIR      68  55  64 W9        30.06R
LITTLE FALLS   CLEAR     64  55  72 W7        30.04R
LITCHFIELD     CLEAR     70  63  78 W3        30.06S
BUFFALO        CLEAR     68  60  75 W3        30.04S
MAPLE LAKE     CLEAR     70  61  73 W6        30.05S
$$
MNZ037-044-045-052-053-310700-
   East Central Minnesota

CITY           SKY/WX    TMP DP  RH WIND       PRES   REMARKS
PRINCETON      CLEAR     66  59  77 SW6       30.02S
MORA           CLEAR     63  55  77 W5        30.01S
CAMBRIDGE      CLEAR     70  57  64 CALM      29.99S
RUSH CITY      PTCLDY    67  58  74 W6        30.00S
MOOSE LAKE     CLOUDY    64  54  68 W8        29.94F
HINCKLEY       FAIR      61  57  88 W6        29.98S
CLOQUET        MOCLDY    66  54  63 W8        29.94S
MCGREGOR       MOCLDY    68  55  64 W6        29.97F
$$
MNZ071>073-080-081-089-090-097-098-310700-
   Southwest Minnesota

CITY           SKY/WX    TMP DP  RH WIND       PRES   REMARKS
MONTEVIDEO     CLEAR     64  57  77 W3        30.10R
GRANITE FALLS  CLEAR     63  61  94 SW6       30.10R
CANBY          CLEAR     65  58  78 W6        30.12S
MARSHALL       CLEAR     63  55  77 W6        30.12S
REDWOOD FALLS  CLEAR     66  61  84 W6        30.08R
OLIVIA         CLEAR     59  55  88 W6        30.07R
PIPESTONE      CLEAR     66  59  77 CALM      30.15R
WINDOM         CLEAR     64  61  88 W5        30.12R
WORTHINGTON    CLEAR     66  57  72 W9G18     30.14R
JACKSON        CLEAR     66  61  82 NW7       30.13R
SLAYTON        CLEAR     64  60  85 CALM      30.15R
$$
MNZ065>067-074>077-082>085-091>093-310700-
   South Central Minnesota

CITY           SKY/WX    TMP DP  RH WIND       PRES   REMARKS
MANKATO        CLEAR     70  61  73 W7        30.07R
NEW ULM        CLEAR     64  63  94 W3        30.08R
ST JAMES       CLEAR     68  63  83 W7        30.10R
FAIRMONT       CLEAR     70  59  68 NW8       30.09R
GLENCOE        CLEAR     66  63  90 CALM      30.06R
FARIBAULT      CLEAR     66  63  88 W6        30.06R
OWATONNA       CLEAR     63  59  88 CALM      30.06R
WASECA         CLEAR     63  59  88 W6        30.08R
ALBERT LEA     CLEAR     72  63  73 W7        30.07R
$$
MNZ078>079-086>088-094>096-310700-
   Southeast Minnesota

CITY           SKY/WX    TMP DP  RH WIND       PRES   REMARKS
ROCHESTER      CLEAR     66  61  84 W10       30.06R
6HR MIN TEMP:  65; 6HR MAX TEMP:  78;

RED WING       CLEAR     64  61  88 CALM      30.01S
STANTON        CLEAR     65  61  85 SW3       30.03S
DODGE CENTER   CLEAR     63  59  88 W6        30.06R
WINONA         PTCLDY    66  63  88 CALM      30.02R
AUSTIN         PTCLDY    70  63  78 W5        30.06S
PRESTON        CLEAR     67  59  74 SW9       30.06R
$$
ABBREVIATIONS USED IN REMARKS
   TC - TEMPERATURES IN CELSIUS
  WCI - WIND CHILL INDEX
   HX - HEAT INDEX
  VSB - VISIBILITY
$$


USA.gov is the U.S. government's official web portal to all federal, state and local government web resources and services.